SCP
0 0 0 0 0 0 0 0 0 0 0 0 0 0 0 0 0 0 0 0 0 0 0 0 0 0 0 0 0 0 0 0 0 0 0 0 0 0 0 0 0 0 0
0 0 0 0 0 0 0 0 0 0 0 0 0 0 0 0 0 0 0 0 0 0 0 0 0 0 0 0 0 0 0 0 0 0 0 0 0 0 0 0 0 0 0
0 0 0 0 0 0 0 0 0 0 0 0 0 0 0 0 0 0 0 0 0 0 0 0 0 0 0 0 0 0 0 0 0 0 0 0 0 0 0 0 0 0 0
0 0 0 0 0 0 0 0 0 0 0 0 0 0 0 0 0 0 0 0 0 0 0 0 0 0 0 0 0 0 0 0 0 0 0 0 0 0 0 0 0 0 0
0 0 0 0 0 0 0 0 0 0 0 0 0 0 0 0 0 0 0 0 0 0 0 0 0 0 0 0 0 0 0 0 0 0 0 0 0 0 0 0 0 0 0
0 0 0 0 0 0 0 0 0 0 0 0 0 0 0 0 0 0 0 0 0 0 0 0 0 0 0 0 0 0 0 0 0 0 0 0 0 0 0 0 0 0 0
0 0 0 0 0 0 0 0 0 0 0 0 0 0 0 0 0 0 0 0 0 0 0 0 0 0 0 0 0 0 0 0 0 0 0 0 0 0 0 0 0 0 0
0 0 0 0 0 0 0 0 0 0 0 0 0 0 0 0 0 0 0 0 0 0 0 0 0 0 0 0 0 0 0 0 0 0 0 0 0 0 0 0 0 0 0
0 0 0 0 0 0 0 0 0 0 0 0 0 0 0 0 0 0 0 0 0 0 0 0 0 0 0 0 0 0 0 0 0 0 0 0 0 0 0 0 0 0 0
0 0 0 0 0 0 0 0 0 0 0 0 0 0 0 0 0 0 0 0 0 0 0 0 0 0 0 0 0 0 0 0 0 0 0 0 0 0 0 0 0 0 0
0 0 0 0 0 0 0 0 0 0 0 0 0 0 0 0 0 0 0 0 0 0 0 0 0 0 0 0 0 0 0 0 0 0 0 0 0 0 0 0 0 0 0
0 0 0 0 0 0 0 0 0 0 0 0 0 0 0 0 0 0 0 0 0 0 0 0 0 0 0 0 0 0 0 0 0 0 0 0 0 0 0 0 0 0 0
0 0 0 0 0 0 0 0 0 0 0 0 0 0 0 0 0 0 0 0 0 0 0 0 0 0 0 0 0 0 0 0 0 0 0 0 0 0 0 0 0 0 0
0 0 0 0 0 0 0 0 0 0 0 0 0 0 0 0 0 0 0 0 0 0 0 0 0 0 0 0 0 0 0 0 0 0 0 0 0 0 0 0 0 0 0
0 0 0 0 0 0 0 0 0 0 0 0 0 0 0 0 0 0 0 0 0 0 0 0 0 0 0 0 0 0 0 0 0 0 0 0 0 0 0 0 0 0 0
0 0 0 0 0 0 0 0 0 0 0 0 0 0 0 0 0 0 0 0 0 0 0 0 0 0 0 0 0 0 0 0 0 0 0 0 0 0 0 0 0 0 0
0 0 0 0 0 0 0 0 0 0 0 0 0 0 0 0 0 0 0 0 0 0 0 0 0 0 0 0 0 0 0 0 0 0 0 0 0 0 0 0 0 0 0
0 0 0 0 0 0 0 0 0 0 0 0 0 0 0 0 0 0 0 0 0 0 0 0 0 0 0 0 0 0 0 0 0 0 0 0 0 0 0 0 0 0 0
0 0 0 0 0 0 0 0 0 0 0 0 0 0 0 0 0 0 0 0 0 0 0 0 0 0 0 0 0 0 0 0 0 0 0 0 0 0 0 0 0 0 0
0 0 0 0 0 0 0 0 0 0 0 0 0 0 0 0 0 0 0 0 0 0 0 0 0 0 0 0 0 0 0 0 0 0 0 0 0 0 0 0 0 0 0
-0 0 0 0 0 0 0 0 0 0 0 0 0 0 0 0 0 0 0 0 0 0 0 0 0 0 0 0 0 0 0 0 0 0 0 0 0 0 0 0 0 0 0
-0 -0 0 0 0 0 0 0 0 0 0 0 0 0 0 0 0 0 0 0 0 0 0 0 0 0 0 0 0 0 0 0 0 0 0 0 0 0 0 0 0 0 0
0 0 0 0 0 0 0 0 0 0 0 0 0 0 0 0 0 0 0 0 0 0 0 0 0 0 0 0 0 0 0 0 0 0 0 0 0 0 0 0 0 0 0
0 0 0 0 0 0 -0 0 0 0 0 0 0 0 0 0 0 0 0 0 0 0 0 0 0 0 0 0 0 0 0 0 0 0 0 0 0 0 0 0 0 0 0
0 0 0 0 0 0 0 0 0 0 0 0 0 0 0 0 0 0 0 0 0 0 0 0 0 0 0 0 0 0 0 0 0 0 0 0 0 0 0 0 0 0 0
0 0 0 0 0 0 0 0 0 0 0 0 0 0 0 0 0 0 0 0 0 0 0 0 0 0 0 0 0 0 0 0 0 0 0 0 0 0 0 0 0 0 0
Wind_Speed
2 1 1 1 1 1 1 1 1 1 1 1 1 1 1 2 2 2 2 5 6 7 8 9 9 9 8 8 9 9 8 8 9 8 8 8 8 7 7 8 8 8 7
2 2 1 1 1 1 1 1 1 1 1 1 1 1 1 1 2 2 2 3 5 7 8 9 9 9 9 9 9 9 9 9 9 9 8 8 8 7 7 8 8 8 8
2 2 2 1 1 1 1 1 1 1 1 1 1 1 1 1 2 2 2 2 3 6 7 7 8 9 9 10 10 10 10 10 9 9 9 9 8 8 8 8 8 8 8
3 2 2 1 1 1 1 1 1 1 1 1 1 0 0 1 1 2 2 2 2 2 5 7 7 8 9 10 11 11 11 11 10 10 10 10 10 9 9 9 8 9 9
3 2 2 1 2 1 1 1 1 1 1 1 1 0 0 0 1 1 2 2 2 1 1 3 6 7 8 10 11 12 12 12 11 11 11 10 11 10 10 9 9 9 9
2 3 2 2 2 2 1 1 1 1 1 1 1 1 0 1 0 0 1 1 1 1 1 2 2 4 7 8 9 12 13 13 13 12 12 12 11 10 10 10 9 9 10
2 2 2 2 2 2 1 2 1 1 1 1 1 1 1 1 1 0 0 0 1 1 1 2 1 2 3 6 8 10 11 12 11 11 10 10 10 10 10 10 10 10 10
2 2 2 2 2 2 1 1 2 1 1 1 2 1 1 2 2 1 0 1 1 1 1 2 2 3 3 2 4 8 9 10 10 10 10 10 10 10 11 12 12 11 11
1 1 2 2 2 2 2 2 2 3 2 0 1 2 2 1 1 1 1 1 1 1 2 2 2 3 3 2 3 5 7 7 8 9 9 9 9 10 11 11 11 11 11
1 1 2 2 2 2 2 1 1 2 2 1 1 1 1 2 2 1 1 1 1 1 2 2 2 3 3 2 3 4 5 5 7 8 9 9 9 9 10 10 11 11 10
1 2 2 2 2 1 1 1 1 2 2 2 1 1 1 1 1 2 2 2 1 2 2 2 2 2 3 3 3 3 4 5 6 7 8 9 9 9 10 10 11 11 10
1 1 2 2 2 1 1 1 1 2 1 2 1 2 2 2 2 2 2 2 2 2 2 2 2 2 3 3 4 4 5 5 6 6 7 7 8 9 10 11 11 12 11
1 1 1 1 1 1 1 1 2 1 1 2 2 1 1 1 2 2 2 1 1 2 2 1 2 2 2 2 3 4 5 5 5 6 6 6 6 7 8 9 10 11 10
1 1 2 1 1 1 2 2 1 1 1 1 1 1 1 1 1 2 2 2 1 1 1 2 1 2 2 2 3 4 3 5 5 5 6 6 6 6 6 7 8 9 9
1 2 2 2 1 1 2 2 1 1 1 1 1 1 1 1 1 2 2 2 2 1 2 2 2 2 2 2 2 2 2 4 5 5 6 6 6 6 6 6 6 6 6
1 2 2 2 1 1 1 2 1 1 1 1 1 1 1 1 1 1 2 2 2 3 2 2 2 2 2 2 2 2 3 3 4 4 5 6 6 6 6 5 5 5 6
2 2 2 2 2 1 1 2 1 1 1 0 0 1 0 0 0 0 1 1 2 2 2 2 1 1 2 2 1 1 2 2 2 4 5 5 6 6 6 5 5 5 5
1 2 2 2 2 2 1 1 1 1 1 1 1 1 1 0 0 0 1 1 1 2 2 2 1 1 2 2 2 2 1 2 2 3 4 5 5 5 6 6 6 5 5
1 1 2 2 2 1 1 1 1 1 1 1 1 2 2 1 1 1 1 1 1 1 1 2 2 1 1 1 1 1 1 1 2 2 3 4 4 4 5 6 6 6 6
1 1 1 1 1 1 1 1 1 1 1 1 1 2 2 2 2 2 1 1 1 1 1 1 1 1 1 1 0 1 1 1 1 1 1 2 3 4 5 6 6 7 7
1 1 1 1 1 1 1 1 1 2 2 2 1 1 1 1 1 2 2 2 2 1 1 1 1 1 1 1 1 1 1 1 1 1 1 2 2 2 3 5 6 7 8
1 1 1 1 1 1 1 2 3 2 2 2 2 2 1 1 1 1 2 3 3 3 3 2 2 2 3 2 1 1 1 1 2 1 1 2 1 2 3 3 5 7 8
1 1 1 1 1 2 2 2 2 2 2 2 2 2 1 1 1 1 2 2 2 4 5 4 4 4 3 3 2 2 2 2 3 2 1 2 2 3 3 3 5 7 8
1 1 0 1 2 3 2 2 2 2 2 2 2 3 2 2 2 1 1 1 2 2 4 4 5 5 5 4 4 3 2 2 3 2 2 3 2 3 3 3 4 6 7
1 1 1 2 2 3 2 2 2 1 1 2 3 2 3 2 2 1 1 1 2 3 3 3 4 5 5 5 4 2 2 2 3 2 2 2 2 2 3 4 4 5 6
2 2 1 2 2 2 2 2 2 1 1 2 2 2 2 3 2 1 2 2 3 3 3 2 2 3 3 3 4 4 4 3 3 3 2 3 2 2 2 2 3 3 3
Wind_Direction
152 149 139 122 133 132 134 122 103 99 115 121 151 157 187 200 202 207 218 227 222 215 208 203 200 200 200 198 200 198 196 196 191 191 190 191 196 197 198 194 190 188 187
159 149 147 158 155 154 156 148 149 146 155 152 144 160 199 197 202 203 201 227 226 219 216 213 211 209 209 206 202 200 199 197 197 196 195 197 201 200 201 198 191 191 192
165 158 165 174 176 151 141 120 115 122 127 128 127 154 165 188 202 202 199 206 225 224 221 219 218 216 215 215 210 207 205 202 200 201 203 206 207 205 204 202 197 195 195
162 158 164 180 169 149 139 144 143 127 113 115 114 179 170 178 201 208 207 202 210 228 231 226 221 219 217 220 216 214 214 212 209 207 207 210 212 209 207 205 203 200 198
158 151 161 168 156 140 139 165 128 141 143 144 145 97 27 270 225 212 207 205 204 217 233 234 223 224 224 223 220 219 216 215 215 213 212 214 215 212 211 209 207 206 203
150 142 149 149 141 128 127 133 138 114 132 149 118 70 20 317 326 245 230 211 215 225 225 236 234 236 231 225 225 225 220 216 216 215 214 215 216 214 214 214 214 214 213
140 138 141 136 132 134 150 143 124 110 87 100 89 42 11 356 355 299 226 208 244 245 215 218 219 227 238 232 232 233 229 224 220 216 218 218 216 215 217 220 219 220 218
149 149 144 139 136 132 130 144 138 134 102 94 119 103 15 351 348 324 262 225 256 257 242 236 224 227 235 230 239 237 238 238 231 224 225 223 220 218 220 219 218 219 219
134 135 137 136 136 140 165 180 166 158 152 116 121 144 146 213 315 333 296 262 264 250 255 257 246 241 238 229 238 241 238 233 232 230 229 229 226 221 221 221 219 221 221
106 105 124 142 146 146 164 185 163 159 150 162 152 130 155 162 171 294 314 303 292 263 255 250 250 246 237 229 230 229 232 229 230 230 229 229 227 222 224 223 221 220 222
77 105 137 136 136 144 165 158 145 151 157 164 161 150 151 142 170 181 252 296 308 274 254 246 244 245 241 234 230 227 223 223 221 223 225 227 226 223 226 228 228 225 226
59 74 109 116 133 142 158 162 160 158 168 165 165 165 169 175 184 185 210 241 271 287 287 265 249 247 243 236 237 232 222 221 218 219 223 227 229 229 229 230 231 230 230
78 47 98 118 128 140 139 131 130 141 161 166 178 182 180 193 171 175 179 211 247 285 302 288 260 249 245 236 241 244 233 228 222 219 222 229 235 237 237 236 233 231 231
163 151 113 113 113 128 136 129 122 140 144 158 175 176 181 196 180 176 175 169 194 274 287 285 298 264 260 246 242 236 237 232 226 223 228 231 236 239 239 238 237 233 231
150 134 120 112 104 114 131 132 127 147 144 161 187 187 199 212 194 195 183 175 173 205 262 267 274 284 269 254 249 234 242 245 234 226 226 227 229 233 233 237 236 232 227
134 135 135 134 121 119 136 138 128 135 125 138 171 182 221 223 204 195 187 188 188 191 225 248 248 275 272 255 242 238 239 251 243 233 228 227 229 231 231 227 231 223 220
151 156 163 154 145 152 150 145 145 138 130 126 175 167 253 177 167 176 164 170 190 188 214 254 249 270 256 252 273 253 241 235 238 238 238 232 229 228 224 219 218 216 219
150 153 152 153 161 166 159 151 157 146 155 186 215 181 227 173 179 177 142 178 198 200 207 241 268 278 269 263 259 251 254 239 239 237 236 236 232 224 220 216 216 219 221
131 137 151 164 176 175 157 170 168 175 197 216 215 210 220 182 213 206 184 212 236 214 207 221 263 281 293 309 307 288 278 268 248 225 222 229 231 227 223 223 223 222 221
134 132 177 189 203 196 182 182 172 191 246 259 245 234 223 201 217 218 211 218 217 216 199 221 259 281 292 300 280 270 290 278 270 268 258 250 240 234 231 229 229 228 225
151 168 173 190 218 203 212 190 191 212 230 249 266 266 230 207 212 203 206 204 192 203 212 221 249 266 281 287 272 261 260 278 283 259 262 265 251 248 242 236 235 233 229
168 161 179 197 218 253 238 197 194 207 214 222 243 268 263 266 281 247 224 198 184 194 210 214 233 240 256 252 253 243 246 259 274 239 224 273 258 262 264 251 244 236 233
184 174 179 214 261 271 254 235 217 207 216 224 229 244 260 272 261 256 256 247 230 220 206 203 221 234 238 233 220 239 239 242 253 257 215 270 269 269 275 270 248 238 232
200 201 205 242 260 274 262 247 237 222 233 238 235 233 238 264 262 221 224 262 273 259 238 226 233 242 242 234 219 228 235 248 264 257 220 256 268 269 283 278 266 247 238
218 222 230 232 246 273 269 248 210 219 245 259 253 242 235 239 252 193 178 255 286 288 270 256 251 258 257 246 219 202 219 232 271 268 210 229 257 274 279 281 281 265 248
235 238 251 250 249 266 270 240 190 196 238 265 277 266 246 247 258 213 199 224 262 279 295 307 302 296 279 263 224 214 219 229 250 264 215 209 235 247 275 272 282 282 265